Location: Appletree Creek
(38.7363°N, 122.6833°W)
Time: 17:42:36
(UTC+00:00)

Landsat 5 - Pass Details

Date: 18 September 2020
Orbit: 528 x 655 km, 98.2° (Epoch: 19 October)

Event Time Altitude Azimuth Distance (km) Brightness Sun altitude
Rises 12:26:38 0° 182° (S) 2,950 6.9 -17.8°
Reaches altitude 10° 12:28:55 10° 189° (S) 2,051 6.0 -17.4°
Maximum altitude 12:33:12 43° 261° (W) 914 3.9 -16.6°
Drops below altitude 10° 12:37:32 10° 333° (NNW) 2,066 6.1 -15.8°
Sets 12:39:50 0° 340° (NNW) 2,973 7.0 -15.4°
